TimeMST,TemperatureF,Dew PointF,Humidity,Sea Level PressureIn,VisibilityMPH,Wind Direction,Wind SpeedMPH,Gust SpeedMPH,PrecipitationIn,Events,Conditions,WindDirDegrees,DateUTC
12:53 AM,18.0,3.9,54,30.08,10.0,WSW,15.0,-,N/A,,Overcast,240,2012-12-10 07:53:00
1:53 AM,18.0,3.0,52,30.05,10.0,WSW,16.1,23.0,N/A,,Overcast,240,2012-12-10 08:53:00
2:53 AM,18.0,3.9,54,30.04,10.0,SW,19.6,-,N/A,,Overcast,220,2012-12-10 09:53:00
3:53 AM,18.0,3.9,54,30.02,10.0,SW,19.6,23.0,N/A,,Mostly Cloudy,230,2012-12-10 10:53:00
4:53 AM,17.1,3.0,54,30.05,10.0,SW,21.9,-,N/A,,Clear,220,2012-12-10 11:53:00
5:53 AM,18.0,5.0,57,30.05,10.0,SW,12.7,-,N/A,,Overcast,220,2012-12-10 12:53:00
6:53 AM,18.0,5.0,57,30.02,10.0,SW,24.2,29.9,N/A,,Overcast,230,2012-12-10 13:53:00
7:53 AM,19.9,6.1,55,30.00,10.0,SW,23.0,32.2,N/A,,Mostly Cloudy,220,2012-12-10 14:53:00
8:53 AM,19.9,6.1,55,30.02,10.0,SSW,23.0,32.2,N/A,,Scattered Clouds,210,2012-12-10 15:53:00
9:53 AM,23.0,9.0,55,30.01,10.0,SW,21.9,28.8,N/A,,Clear,220,2012-12-10 16:53:00
10:53 AM,26.1,10.0,51,29.99,10.0,SSW,17.3,-,N/A,,Clear,210,2012-12-10 17:53:00
11:53 AM,28.9,10.0,45,29.95,10.0,West,11.5,-,N/A,,Overcast,260,2012-12-10 18:53:00
12:53 PM,28.0,12.0,51,29.94,10.0,West,15.0,-,N/A,,Overcast,280,2012-12-10 19:53:00
1:53 PM,28.9,15.1,56,29.93,10.0,WNW,15.0,-,N/A,,Overcast,300,2012-12-10 20:53:00
2:53 PM,28.0,15.1,58,29.94,10.0,NW,12.7,-,N/A,,Overcast,310,2012-12-10 21:53:00
3:53 PM,27.0,14.0,58,29.97,10.0,NNW,5.8,-,N/A,,Overcast,340,2012-12-10 22:53:00
4:53 PM,24.1,14.0,65,30.01,10.0,NNE,5.8,-,N/A,,Overcast,30,2012-12-10 23:53:00
5:53 PM,21.9,16.0,78,30.04,10.0,NE,5.8,-,N/A,,Overcast,40,2012-12-11 00:53:00
6:53 PM,19.9,15.1,81,30.07,10.0,Calm,Calm,-,N/A,,Overcast,0,2012-12-11 01:53:00
7:53 PM,12.9,10.9,92,30.10,10.0,SSW,8.1,-,N/A,,Clear,210,2012-12-11 02:53:00
8:53 PM,10.0,7.0,87,30.12,10.0,West,5.8,-,N/A,,Partly Cloudy,270,2012-12-11 03:53:00
9:53 PM,15.1,12.0,88,30.08,10.0,SW,5.8,-,N/A,,Mostly Cloudy,230,2012-12-11 04:53:00
10:53 PM,17.1,12.0,81,30.06,10.0,SW,11.5,-,N/A,,Partly Cloudy,230,2012-12-11 05:53:00
11:53 PM,17.1,10.9,77,30.04,10.0,WSW,12.7,-,N/A,,Scattered Clouds,240,2012-12-11 06:53:00